Location: Holyhead Bay
(53.3667°N, 4.6667°W)
Time: 19:10:30
(UTC+00:00)

Meteor 1-27 - Pass Details

Date: 24 November 2020
Orbit: 838 x 892 km, 81.3° (Epoch: 17 January)

Event Time Altitude Azimuth Distance (km) Brightness Sun altitude
Rises 17:07:29 0° 195° (SSW) 3,399 8.0 -8.3°
Reaches altitude 10° 17:09:53 10° 197° (SSW) 2,474 7.2 -8.6°
Maximum altitude 17:15:31 79° 284° (WNW) 882 4.4 -9.4°
Drops below altitude 10° 17:21:16 10° 12° (NNE) 2,527 6.4 -10.2°
Sets 17:23:44 0° 14° (NNE) 3,477 7.1 -10.5°
